User: anonymous   Login
Location: Roanoke
(37.2710°N, 79.9420°W)
Time: 21:44:58
(UTC-04:00)
Language:

Cosmos 1441 Rocket - Orbit

View from above orbital plane
View from above orbital plane
View from above satellite
View from above satellite

Ground track
Ground track

The orbit data is extracted from the following two-line orbital elements,

1 13819U 83010B   18172.35408570  .00000081  00000-0  28672-5 0  9994
2 13819  81.1170  88.6203 0032282 185.3573 174.7315 15.15320165929623
Epoch (UTC): 21 June 2018 08:29:53
Eccentricity: 0.0032282
inclination: 81.1170°
perigee height: 498 km
apogee height: 542 km
right ascension of ascending node: 88.6203°
argument of perigee: 185.3573°
revolutions per day: 15.15320165
mean anomaly at epoch: 174.7315°
orbit number at epoch: 92962

The dashed part of the orbit path shows where the satellite is in the earth's shadow,  

DLR